CW9009 Weather Reports


Display with metric or nautical units.
time (UTC)temp
F
wind
direction
speed
MPH
gust
MPH
rain 1hr
in
rain 24hr
in
rain mn
in
humidity
%
barometer
mb
20260503020424 77 270 1.0 1.0 0.00 0.00 0.00 18 1010.6
20260503015444 77 270 1.0 2.0 0.00 0.00 0.00 16 1010.6
20260503014424 78 281 1.0 1.0 0.00 0.00 0.00 15 1010.6
20260503013424 79 288 1.0 1.0 0.00 0.00 0.00 15 1010.6
20260503012425 79 279 1.0 1.0 0.00 0.00 0.00 12 1010.7
20260503011425 80 0.0 0.0 0.00 0.00 0.00 10 1010.8
20260503010425 80 287 0.0 1.0 0.00 0.00 0.00 9 1010.8
20260503005425 81 0.0 0.0 0.00 0.00 0.00 9 1010.8
20260503004425 81 282 0.0 1.0 0.00 0.00 0.00 7 1010.8
20260503003426 82 267 1.0 2.0 0.00 0.00 0.00 5 1010.8
20260503002425 82 272 1.0 1.0 0.00 0.00 0.00 5 1010.8
20260503001425 83 312 0.0 1.0 0.00 0.00 0.00 7 1010.9
20260503000426 82 0 0.0 0.0 0.00 0.00 0.00 7 1011.0
20260502235426 82 253 0.0 1.0 0.00 0.00 0.00 5 1011.0
20260502234426 82 272 2.0 2.0 0.00 0.00 0.00 4 1011.0
20260502233426 83 262 0.0 1.0 0.00 0.00 0.00 7 1011.1
20260502232427 83 267 0.0 1.0 0.00 0.00 0.00 7 1011.1
20260502231427 84 0.0 0.0 0.00 0.00 0.00 5 1011.1
20260502230447 83 0.0 0.0 0.00 0.00 0.00 7 1011.2
20260502225428 83 185 0.0 1.0 0.00 0.00 0.00 5 1011.4
20260502224427 83 122 1.0 2.0 0.00 0.00 0.00 9 1011.5
20260502223428 82 0.0 0.0 0.00 0.00 0.00 5 1011.7
20260502222427 83 263 0.0 0.0 0.00 0.00 0.00 7 1011.8
20260502221448 84 302 1.0 1.0 0.00 0.00 0.00 7 1011.9
20260502220428 84 126 1.0 2.0 0.00 0.00 0.00 7 1012.0
20260502215428 84 287 0.0 1.0 0.00 0.00 0.00 9 1012.1
20260502214429 84 181 2.0 3.0 0.00 0.00 0.00 10 1012.3
20260502213428 84 125 1.0 2.0 0.00 0.00 0.00 9 1012.4
20260502212429 84 107 2.0 3.0 0.00 0.00 0.00 10 1012.6
20260502211509 83 148 1.0 3.0 0.00 0.00 0.00 10 1012.7
20260502210429 83 253 1.0 2.0 0.00 0.00 0.00 12 1012.8
20260502205429 82 98 3.0 5.0 0.00 0.00 0.00 15 1012.8
20260502204429 82 78 1.0 3.0 0.00 0.00 0.00 15 1013.0
20260502203430 81 217 1.0 3.0 0.00 0.00 0.00 15 1013.1
20260502202430 81 205 1.0 2.0 0.00 0.00 0.00 13 1013.2
20260502201430 80 142 1.0 2.0 0.00 0.00 0.00 16 1013.4
20260502200430 79 38 2.0 4.0 0.00 0.00 0.00 18 1013.5
20260502195450 78 100 1.0 3.0 0.00 0.00 0.00 21 1013.5
20260502194415 78 98 2.0 4.0 0.00 0.00 0.00 19 1013.7
20260502193436 76 92 1.0 2.0 0.00 0.00 0.00 21 1013.8
20260502192416 76 47 1.0 2.0 0.00 0.00 0.00 28 1014.1
20260502191431 75 0 0.0 0.0 0.00 0.00 0.00 28 1014.1
20260502190416 75 194 1.0 2.0 0.00 0.00 0.00 30 1014.3
20260502185417 74 153 2.0 3.0 0.00 0.00 0.00 31 1014.6
20260502184416 72 154 2.0 2.0 0.00 0.00 0.00 33 1014.7
20260502183457 71 126 0.0 1.0 0.00 0.00 0.00 35 1014.8
20260502182417 70 164 1.0 1.0 0.00 0.00 0.00 36 1015.0
20260502181432 69 111 1.0 1.0 0.00 0.00 0.00 37 1015.2
20260502180433 68 146 2.0 4.0 0.00 0.00 0.00 42 1015.3
20260502170418 62 296 0.0 1.0 0.00 0.00 0.00 45 1015.8
20260502163419 59 251 1.0 1.0 0.00 0.00 0.00 48 1016.2
20260502162419 58 35 0.0 0.0 0.00 0.00 0.00 49 1016.3
20260502161419 57 169 2.0 2.0 0.00 0.00 0.00 51 1016.2
20260502160419 56 154 1.0 2.0 0.00 0.00 0.00 51 1016.2
20260502151440 53 141 0.0 1.0 0.00 0.00 0.00 60 1016.2
20260502150420 53 141 2.0 2.0 0.00 0.00 0.00 64 1016.1
20260502130418 49 1 2.0 3.0 0.00 0.00 0.00 60 1015.6
20260502123419 50 98 2.0 3.0 0.00 0.00 0.00 59 1015.4
20260502122419 50 36 1.0 3.0 0.00 0.00 0.00 59 1015.4
20260502121439 50 34 2.0 2.0 0.00 0.00 0.00 58 1015.4
20260502120439 50 84 1.0 2.0 0.00 0.00 0.00 58 1015.2
20260502115420 50 79 1.0 3.0 0.00 0.00 0.00 58 1015.1
20260502114419 50 124 2.0 3.0 0.00 0.00 0.00 58 1015.3
20260502113420 50 110 3.0 3.0 0.00 0.00 0.00 58 1015.4
20260502112420 50 53 3.0 4.0 0.00 0.00 0.00 58 1015.6
20260502111420 50 169 1.0 2.0 0.00 0.00 0.00 59 1015.6
20260502110421 50 48 2.0 2.0 0.00 0.00 0.00 58 1015.6
20260502105420 50 188 2.0 3.0 0.00 0.00 0.00 55 1015.7
20260502104421 50 43 2.0 2.0 0.00 0.00 0.00 58 1015.6
20260502103421 50 60 2.0 3.0 0.00 0.00 0.00 58 1015.6
20260502102441 50 197 2.0 2.0 0.00 0.00 0.00 58 1015.6
20260502101421 50 49 1.0 2.0 0.00 0.00 0.00 55 1015.6
20260502100422 51 78 2.0 3.0 0.00 0.00 0.00 54 1015.4
20260502091422 52 51 1.0 3.0 0.00 0.00 0.00 53 1015.3
20260502090423 52 111 2.0 3.0 0.00 0.00 0.00 54 1015.4
20260502071425 51 245 2.0 3.0 0.00 0.00 0.00 58 1015.8
20260502070445 52 313 2.0 2.0 0.00 0.00 0.00 54 1015.8
20260502065425 53 233 1.0 2.0 0.00 0.00 0.00 53 1015.8
20260502064525 54 226 1.0 1.0 0.00 0.00 0.00 51 1015.8
20260502063426 55 343 1.0 1.0 0.00 0.00 0.00 51 1015.7
20260502062426 55 131 1.0 1.0 0.00 0.00 0.00 54 1015.6
20260502061425 56 79 1.0 1.0 0.00 0.00 0.00 47 1015.6
20260502060426 57 118 1.0 2.0 0.00 0.00 0.00 47 1015.6
20260502055426 56 82 1.0 2.0 0.00 0.00 0.00 49 1015.6
20260502054426 57 83 1.0 2.0 0.00 0.00 0.00 53 1015.7
20260502053427 58 116 2.0 3.0 0.00 0.00 0.00 42 1015.7
20260502052447 58 85 1.0 2.0 0.00 0.00 0.00 42 1015.7
20260502051447 59 32 0.0 1.0 0.00 0.00 0.00 42 1015.7
20260502050447 59 78 0.0 1.0 0.00 0.00 0.00 42 1015.6
20260502045447 60 0 0.0 0.0 0.00 0.00 0.00 41 1015.4
20260502044427 60 67 1.0 1.0 0.00 0.00 0.00 39 1015.6
20260502043427 61 0.0 0.0 0.00 0.00 0.00 39 1015.6
20260502042416 62 0 0.0 0.0 0.00 0.00 0.00 37 1015.6
20260502041417 64 164 1.0 1.0 0.00 0.00 0.00 36 1015.4
20260502040437 65 107 1.0 1.0 0.00 0.00 0.00 33 1015.4
20260502035417 65 0 0.0 0.0 0.00 0.00 0.00 31 1015.2
20260502034457 65 0 0.0 0.0 0.00 0.00 0.00 30 1015.1
20260502033417 67 53 0.0 1.0 0.00 0.00 0.00 27 1015.0
20260502032416 69 140 1.0 1.0 0.00 0.00 0.00 25 1015.0
20260502031418 70 0.0 0.0 0.00 0.00 0.00 22 1014.8
20260502030418 71 191 0.0 1.0 0.00 0.00 0.00 21 1014.7
20260502025438 72 141 1.0 1.0 0.00 0.00 0.00 16 1014.6
20260502024416 73 0.0 0.0 0.00 0.00 0.00 15 1014.5
20260502023417 74 0.0 0.0 0.00 0.00 0.00 13 1014.6
20260502022417 75 0 0.0 0.0 0.00 0.00 0.00 13 1014.5
20260502021418 76 0.0 0.0 0.00 0.00 0.00 12 1014.5